User: anonymous   Login
Location: Harbor Island
(32.3990°N, 80.4435°W)
Time: 07:29:09
(UTC-04:00)
Language:

Cosmos 1455 - Orbit

View from above orbital plane
View from above orbital plane
View from above satellite
View from above satellite

Ground track
Ground track

The orbit data is extracted from the following two-line orbital elements,

1 14032U 83037A   16237.48199802  .00001317  00000-0  66003-4 0  9992
2 14032  82.5173  20.1031 0016679 226.3950 133.5900 15.16393564816404
Epoch (UTC): 24 August 2016 11:34:04
Eccentricity: 0.0016679
inclination: 82.5173°
perigee height: 505 km
apogee height: 528 km
right ascension of ascending node: 20.1031°
argument of perigee: 226.3950°
revolutions per day: 15.16393564
mean anomaly at epoch: 133.5900°
orbit number at epoch: 81640

The dashed part of the orbit path shows where the satellite is in the earth's shadow,  

DLR